TimeEST,TemperatureF,Dew PointF,Humidity,Sea Level PressureIn,VisibilityMPH,Wind Direction,Wind SpeedMPH,Gust SpeedMPH,PrecipitationIn,Events,Conditions,WindDirDegrees,DateUTC
12:14 AM,32.0,30.2,93,29.38,1.8,ENE,8.1,-,N/A,Snow,Light Snow,60,2013-02-19 05:14:00
12:34 AM,32.0,30.2,93,29.36,1.2,ENE,8.1,-,N/A,Snow,Light Snow,70,2013-02-19 05:34:00
12:55 AM,32.0,30.2,93,29.34,1.5,ENE,8.1,-,N/A,Snow,Light Snow,60,2013-02-19 05:55:00
1:14 AM,32.0,30.2,93,29.33,2.5,NE,6.9,-,N/A,Snow,Light Snow,50,2013-02-19 06:14:00
1:35 AM,32.0,30.2,93,29.31,1.8,NE,6.9,-,N/A,Snow,Light Snow,40,2013-02-19 06:35:00
1:55 AM,32.0,30.2,93,29.30,1.8,NNE,4.6,-,N/A,Snow,Light Snow,30,2013-02-19 06:55:00
2:14 AM,32.0,30.2,93,29.29,1.2,North,5.8,-,N/A,Snow,Light Snow,360,2013-02-19 07:14:00
2:35 AM,32.0,30.2,93,29.28,2.0,North,8.1,-,N/A,Snow,Light Snow,350,2013-02-19 07:35:00
2:54 AM,32.0,28.4,87,29.27,1.8,NNW,8.1,-,N/A,Snow,Light Snow,340,2013-02-19 07:54:00
3:14 AM,30.2,28.4,93,29.25,1.8,North,10.4,-,N/A,Snow,Light Snow,350,2013-02-19 08:14:00
3:35 AM,30.2,28.4,93,29.24,1.2,NNW,10.4,-,N/A,Snow,Light Snow,340,2013-02-19 08:35:00
3:54 AM,30.2,28.4,93,29.23,1.0,NNW,10.4,-,N/A,Snow,Snow,340,2013-02-19 08:54:00
4:15 AM,30.2,28.4,93,29.23,0.8,NNW,13.8,18.4,N/A,Snow,Snow,330,2013-02-19 09:15:00
4:35 AM,30.2,28.4,93,29.23,1.2,NNW,12.7,-,N/A,Snow,Light Snow,330,2013-02-19 09:35:00
4:54 AM,30.2,28.4,93,29.22,1.5,NNW,13.8,20.7,N/A,Snow,Light Snow,330,2013-02-19 09:54:00
5:15 AM,30.2,28.4,93,29.22,1.2,NNW,15.0,27.6,N/A,Snow,Light Snow,330,2013-02-19 10:15:00
5:34 AM,30.2,28.4,93,29.22,1.5,NW,16.1,24.2,N/A,Snow,Light Snow,320,2013-02-19 10:34:00
5:55 AM,30.2,28.4,93,29.22,1.5,NW,20.7,27.6,N/A,Snow,Light Snow,310,2013-02-19 10:55:00
6:15 AM,28.4,24.8,86,29.22,1.5,NW,21.9,35.7,N/A,Snow,Light Snow,310,2013-02-19 11:15:00
6:34 AM,28.4,24.8,86,29.23,2.0,WNW,20.7,31.1,N/A,Snow,Light Snow,300,2013-02-19 11:34:00
6:55 AM,26.6,24.8,93,29.23,2.0,WNW,21.9,29.9,N/A,Snow,Light Snow,300,2013-02-19 11:55:00
7:14 AM,26.6,24.8,93,29.24,3.0,WNW,18.4,27.6,N/A,Snow,Light Snow,290,2013-02-19 12:14:00
7:34 AM,26.6,23.0,86,29.24,2.5,WNW,19.6,25.3,N/A,Snow,Light Snow,290,2013-02-19 12:34:00
7:55 AM,26.6,23.0,86,29.25,1.8,WNW,19.6,25.3,N/A,Snow,Light Snow,290,2013-02-19 12:55:00
8:14 AM,26.6,23.0,86,29.26,3.0,WNW,19.6,25.3,N/A,Snow,Light Snow,290,2013-02-19 13:14:00
8:35 AM,26.6,23.0,86,29.27,5.0,West,17.3,-,N/A,Snow,Light Snow,280,2013-02-19 13:35:00
9:14 AM,28.4,26.6,93,29.29,3.0,WNW,25.3,28.8,N/A,Snow,Light Snow,300,2013-02-19 14:14:00
9:35 AM,28.4,24.8,86,29.30,7.0,NW,20.7,29.9,N/A,Snow,Light Snow,310,2013-02-19 14:35:00
9:54 AM,28.4,24.8,86,29.31,5.0,NW,23.0,31.1,N/A,Snow,Light Snow,310,2013-02-19 14:54:00
10:14 AM,28.4,24.8,86,29.33,3.0,NW,21.9,34.5,N/A,Snow,Light Snow,310,2013-02-19 15:14:00
10:35 AM,26.6,21.2,80,29.35,0.8,NW,24.2,38.0,N/A,Snow,Light Snow,320,2013-02-19 15:35:00
10:54 AM,26.6,21.2,80,29.37,1.0,NW,19.6,33.4,N/A,Snow,Light Snow,310,2013-02-19 15:54:00
11:15 AM,26.6,21.2,80,29.38,1.0,NW,27.6,41.4,N/A,Snow,Light Snow,320,2013-02-19 16:15:00
11:34 AM,24.8,21.2,86,29.40,1.0,NW,19.6,32.2,N/A,Snow,Light Snow,310,2013-02-19 16:34:00
11:54 AM,24.8,19.4,80,29.42,0.5,WNW,24.2,34.5,N/A,Snow,Light Snow,300,2013-02-19 16:54:00
12:15 PM,23.0,19.4,86,29.43,0.5,NW,18.4,32.2,N/A,Snow,Snow,310,2013-02-19 17:15:00
12:34 PM,21.2,17.6,86,29.45,0.5,WNW,23.0,34.5,N/A,Snow,Snow,300,2013-02-19 17:34:00
12:55 PM,21.2,17.6,86,29.46,0.5,WNW,21.9,32.2,N/A,Snow,Snow,300,2013-02-19 17:55:00
1:15 PM,21.2,17.6,86,29.47,0.5,WNW,21.9,31.1,N/A,Snow,Light Snow,300,2013-02-19 18:15:00
1:34 PM,21.2,17.6,86,29.49,0.5,NW,24.2,34.5,N/A,Snow,Light Snow,310,2013-02-19 18:34:00
1:55 PM,21.2,15.8,80,29.50,1.2,NW,23.0,29.9,N/A,Snow,Light Snow,310,2013-02-19 18:55:00
2:14 PM,21.2,15.8,80,29.51,1.2,NW,24.2,35.7,N/A,Snow,Light Snow,310,2013-02-19 19:14:00
2:34 PM,21.2,15.8,80,29.53,0.8,NW,18.4,36.8,N/A,Snow,Light Snow,310,2013-02-19 19:34:00
2:55 PM,19.4,15.8,86,29.55,0.5,NW,17.3,32.2,N/A,Snow,Light Snow,310,2013-02-19 19:55:00
3:14 PM,19.4,15.8,86,29.56,0.2,NW,25.3,35.7,N/A,Snow,Snow,310,2013-02-19 20:14:00
3:35 PM,19.4,15.8,86,29.58,0.5,WNW,20.7,36.8,N/A,Snow,Light Snow,300,2013-02-19 20:35:00
3:54 PM,19.4,15.8,86,29.60,0.5,WNW,19.6,29.9,N/A,Snow,Light Snow,300,2013-02-19 20:54:00
4:14 PM,17.6,14.0,86,29.61,0.2,WNW,24.2,32.2,N/A,Snow,Snow,300,2013-02-19 21:14:00
4:35 PM,17.6,14.0,86,29.63,0.2,WNW,18.4,28.8,N/A,Snow,Snow,300,2013-02-19 21:35:00
4:54 PM,17.6,12.2,79,29.65,0.2,WNW,25.3,33.4,N/A,Snow,Snow,300,2013-02-19 21:54:00
5:15 PM,15.8,12.2,86,29.67,0.5,WNW,23.0,32.2,N/A,Snow,Light Snow,300,2013-02-19 22:15:00
5:35 PM,15.8,10.4,79,29.69,0.2,WNW,20.7,35.7,N/A,Snow,Snow,300,2013-02-19 22:35:00
5:54 PM,15.8,10.4,79,29.70,0.5,NW,21.9,41.4,N/A,Snow,Light Snow,310,2013-02-19 22:54:00
6:15 PM,15.8,10.4,79,29.72,0.5,WNW,21.9,32.2,N/A,Snow,Light Snow,300,2013-02-19 23:15:00
7:35 PM,14.0,8.6,79,29.78,2.0,WNW,16.1,27.6,N/A,Snow,Light Snow,290,2013-02-20 00:35:00
7:55 PM,14.0,8.6,79,29.79,1.8,WNW,18.4,24.2,N/A,Snow,Light Snow,300,2013-02-20 00:55:00
8:14 PM,14.0,8.6,79,29.79,1.0,WNW,17.3,28.8,N/A,Snow,Light Snow,300,2013-02-20 01:14:00
8:35 PM,14.0,8.6,79,29.80,1.8,WNW,15.0,26.5,N/A,Snow,Light Snow,300,2013-02-20 01:35:00
8:54 PM,14.0,10.4,86,29.81,0.8,WNW,12.7,20.7,N/A,Snow,Snow,300,2013-02-20 01:54:00
9:15 PM,14.0,10.4,86,29.81,2.5,WNW,9.2,18.4,N/A,Snow,Light Snow,300,2013-02-20 02:15:00
9:35 PM,15.8,8.6,73,29.82,4.0,NW,16.1,24.2,N/A,Snow,Light Snow,310,2013-02-20 02:35:00
9:54 PM,14.0,8.6,79,29.83,2.5,NW,17.3,25.3,N/A,Snow,Light Snow,310,2013-02-20 02:54:00
10:15 PM,14.0,8.6,79,29.84,3.0,NW,13.8,20.7,N/A,Snow,Light Snow,310,2013-02-20 03:15:00
10:34 PM,14.0,10.4,86,29.85,1.5,NW,13.8,20.7,N/A,Snow,Light Snow,310,2013-02-20 03:34:00
10:55 PM,14.0,8.6,79,29.85,2.0,NW,17.3,21.9,N/A,Snow,Light Snow,310,2013-02-20 03:55:00
11:14 PM,14.0,8.6,79,29.86,4.0,NW,12.7,19.6,N/A,Snow,Light Snow,320,2013-02-20 04:14:00
11:35 PM,14.0,8.6,79,29.86,4.0,NW,16.1,25.3,N/A,Snow,Light Snow,320,2013-02-20 04:35:00
11:55 PM,14.0,8.6,79,29.87,4.0,NW,11.5,25.3,N/A,Snow,Light Snow,320,2013-02-20 04:55:00